Regional Weather Roundup
Issued by NWS Portland, ME

Home | Current Version | Previous Version | Text Only | Print | Product List | Glossary On
Versions: 1 2 3 4 5 6 7 8 9 10 11 12 13 14 15 16 17 18 19 20 21 22 23 24 25 26 27 28 29 30 31 32 33 34 35 36 37 38 39 40 41 42 43 44 45 46 47 48 49 50
000
ASUS41 KGYX 292110
RWRGYX
WEATHER ROUNDUP FOR MAINE AND NEW HAMPSHIRE
NATIONAL WEATHER SERVICE GRAY ME
500 PM EDT SAT AUG 29 2015

MEZ002-005-006-010-012-015-018-020-021-024-026-027-029-292200-
MAINE

CITY           SKY/WX    TMP DP  RH WIND       PRES   REMARKS
PORTLAND       PTSUNNY   73  59  61 S12       30.07F
SANFORD        FAIR      79  57  47 SW8       30.08F
BAR HARBOR     FAIR      72  61  68 S13       30.07F
WISCASSET      FAIR      75  56  51 S7        30.08F
ROCKLAND       FAIR      72  57  60 S8        30.06F
FRYEBURG       FAIR      77  63  61 S7        30.07F
LEWISTONAUBURN FAIR      75 N/A N/A S8        30.07F
AUGUSTA        FAIR      75  60  59 S3        30.07F
WATERVILLE     FAIR      75  61  60 S5        30.03F
BANGOR         CLOUDY    73  60  63 S8        30.06F
GREENVILLE       N/A     67  57  70 CALM      30.07F
MILLINOCKET    FAIR      73  58  59 W5        30.06F
HOULTON        FAIR      72  57  59 SW6       30.02S
PRESQUE ISLE   FAIR      72  54  53 SW6       30.01F
FRENCHVILLE    CLOUDY    69  57  65 S5        30.00S
CARIBOU        PTSUNNY   71  56  58 SW8       30.00F
$$

NHZ002-005-008-009-011-012-014-292200-
NEW HAMPSHIRE

CITY           SKY/WX    TMP DP  RH WIND       PRES   REMARKS
PORTSMOUTH     PTSUNNY   77  60  54 SW6       30.05F
ROCHESTER      FAIR      80  57  45 VRB3      30.07F
NASHUA         FAIR      80  56  43 W6        30.09F
MANCHESTER     PTSUNNY   80  54  40 W10       30.07F
CONCORD        FAIR      79  57  46 SW10      30.08F
LACONIA        FAIR      77  54  44 SW12      30.07S
PLYMOUTH       FAIR      76  53  44 W5        30.08S
BERLIN         FAIR      74  55  51 VRB3      30.10S
WHITEFIELD     FAIR      74  57  55 W5        30.10F
JAFFREY        FAIR      75  55  49 VRB7      30.13F
KEENE          FAIR      77  55  47 SW9       30.10F
LEBANON        FAIR      79  54  41 SW7       30.08F
MT WASHINGTON  FOG       52  52 100 W17         N/A  VSB 1/8
$$

VTZ005-007-008-292200-
VERMONT

CITY           SKY/WX    TMP DP  RH WIND       PRES   REMARKS
ST JOHNSBURY     N/A     77  55  46 MISG      30.07F
MONTPELIER     FAIR      75  54  47 S3        30.14F
BURLINGTON     PTSUNNY   79  54  41 S5        30.07F
$$

MAZ007-012-024-CTZ003-RIZ002-NYZ038-NYZ072-292200-
SOUTHERN NEW ENGLAND AND NY

CITY           SKY/WX    TMP DP  RH WIND       PRES   REMARKS
BOSTON         PTSUNNY   80  53  39 W12       30.08F
WORCESTER      FAIR      74  55  51 W6        30.13F
NANTUCKET      FAIR      75  66  73 S12       30.14F
PROVIDENCE     PTSUNNY   82  54  37 VRB5      30.10F
HARTFORD       PTSUNNY   82  55  39 VRB5      30.10F
ALBANY         PTSUNNY   79  58  48 S5        30.09F
NEW YORK CITY  FAIR      82  58  43 S15       30.10F
$$

ANZ081-ANZ082-ANZ150-NHZ014-MEZ023>029-292200-
COASTAL MARINE OBSERVATIONS

STATION/POSITION TIME  TEMP    WIND        PRES    WAVE
                       AIR SEA DIR/SP/G            HT/PER
                 (UTC) (F)     (DEG/KT/KT) (MB)    (FT/S)
MOUNT DESERT ROC 2100   63     200/ 14/ 15 1018.9F
MATINICUS ROCK   2100   64     210/  9/  9 1018.6F
ISLE OF SHOALS   2100   70     160/ 16/ 16 1017.8F
JEFFREYS LEDGE   2003      69                N/A     3/10
CASHES LEDGE BUO 2050   69                 1019.0F   3/11
GEORGES BANK BUO 2050   71 71  220/  4/  4 1021.0F   4/11
$$

.............KEY..............
   WCI - WIND CHILL
   TC  - TEMPERATURE IN CELSIUS
   VSB - VISIBILITY IN MILES
   HX  - HEAT INDEX
   FAIR- INDICATES FEW OR NO CLOUDS BELOW 12,000 FT, WITH NO
         SIGNIFICANT WEATHER AND/OR OBSTRUCTIONS TO VISIBILITY.




USA.gov is the U.S. government's official web portal to all federal, state and local government web resources and services.